CAPE
0 0 0 0 0 0 0 0 0 0 1 0 11 202 1151 1564 1635 1638 1707 1806 1928 2061 2233 2314 2228 1789 1342 1502 1637 1765 1840 1867 1898 1944 1956 1914 1890 1817 1863 1992 1697 827 370 256
0 0 0 0 0 0 0 0 0 0 0 14 822 1214 1098 1061 1184 1198 1153 1059 1062 1268 1747 2111 2388 2098 1595 1460 1443 1679 1786 1836 1987 2114 2026 1967 1954 1824 1796 1517 530 0 0 9
0 0 0 0 0 0 0 0 0 0 33 1059 855 550 388 300 470 636 581 591 507 613 953 1066 1823 2384 2170 1566 1518 1684 1914 2061 2172 2241 2183 2198 2301 2147 2062 1379 670 251 18 41
0 0 0 0 4 66 1 3 7 9 739 487 77 4 2 4 3 4 1 2 20 81 330 387 352 619 850 1932 2377 2343 2326 2323 2367 2374 2316 2348 2477 2450 2568 1629 856 323 165 8
0 0 7 48 30 24 159 70 33 232 370 4 0 0 0 0 0 0 0 0 0 0 20 79 161 139 162 140 319 743 1880 2972 3017 2649 2343 2320 2408 2497 2674 1571 890 617 96 0
0 5 4 190 2 0 95 240 109 441 108 90 157 128 0 0 0 0 0 0 0 0 0 0 0 0 0 22 55 7 0 874 2789 3110 2730 2394 2386 2540 2551 1536 1112 38 0 21
4 20 21 0 0 0 307 49 19 106 25 10 13 0 0 0 0 0 0 0 0 0 0 0 0 0 0 0 0 0 0 0 248 2198 2968 2730 2412 2354 2296 2107 1346 316 0 30
0 6 7 0 0 174 28 0 0 0 0 0 0 0 0 0 0 0 0 0 0 0 0 0 0 0 0 0 0 0 0 0 7 219 2102 2602 2417 2199 1788 1869 1756 1788 1303 904
0 1 0 0 0 0 0 0 0 0 0 0 0 0 0 0 0 0 0 0 0 0 0 0 0 0 0 0 0 0 0 0 48 130 362 1329 2019 1910 1718 1632 1578 1360 1093 852
0 0 0 0 0 0 0 0 0 0 0 0 0 0 0 0 0 0 0 0 0 0 0 0 0 0 0 0 0 0 0 0 0 143 49 387 1135 1472 1665 1578 1505 1421 1146 926
0 0 0 0 0 0 0 0 0 0 0 0 0 0 0 0 0 0 0 0 0 0 0 0 0 0 0 0 0 0 0 0 0 0 73 240 321 503 600 811 840 947 463 0
0 0 0 0 0 0 0 0 0 0 0 0 0 0 0 0 0 0 0 0 0 0 0 0 0 0 0 0 0 0 0 0 0 0 0 0 41 120 41 4 2 0 0 0
0 0 0 0 0 0 0 0 0 0 0 0 0 0 0 0 0 0 0 0 1 3 4 2 2 4 3 4 5 4 1 0 0 0 0 0 0 0 0 1 13 0 0 0
0 0 0 0 0 0 0 0 0 0 0 0 0 0 0 0 0 0 0 0 0 2 3 1 4 5 0 0 3 4 8 0 0 0 0 0 0 0 0 2 0 0 0 0
0 0 0 0 0 0 0 0 0 0 0 0 0 0 0 0 0 0 1 1 1 1 2 3 0 0 0 0 0 0 0 8 12 7 1 0 0 0 0 1 2 4 0 1
0 0 0 0 0 0 0 0 0 0 0 0 0 0 0 0 0 1 1 1 3 4 4 2 0 0 2 2 2 0 1 0 1 14 13 1 0 0 0 3 0 1 18 1
0 0 0 0 0 0 0 0 0 0 0 0 0 0 0 0 0 0 1 1 1 2 2 1 2 2 3 2 1 1 2 2 3 4 17 17 16 11 13 15 28 9 0 0
0 0 0 0 0 0 0 0 0 0 0 0 0 0 0 0 2 2 1 1 0 1 2 1 3 6 3 3 3 2 2 3 1 3 8 22 29 23 20 27 36 32 20 4
0 0 0 0 0 0 0 0 0 0 0 0 0 0 0 0 1 2 3 4 2 2 1 4 7 4 3 5 7 2 4 3 3 2 2 9 25 29 24 33 40 39 38 35
0 0 0 0 0 0 0 0 0 0 0 0 0 0 0 0 0 0 0 2 1 2 2 3 2 2 4 4 4 1 1 3 4 4 2 3 14 31 19 19 23 31 35 47
0 0 0 0 0 0 0 0 0 0 0 0 0 0 0 0 0 0 0 0 0 0 0 1 2 2 4 4 2 3 3 3 5 5 5 3 2 2 24 42 25 34 32 26
0 0 0 0 0 0 0 0 0 0 0 0 0 0 0 0 0 0 0 0 0 0 0 0 0 0 1 3 5 3 2 2 3 4 4 5 5 5 3 2 15 43 35 35
0 0 0 0 0 0 0 0 0 0 0 0 0 0 0 0 0 0 0 0 0 0 0 0 0 0 0 0 0 0 3 2 2 2 2 3 5 6 6 6 6 6 2 5
0 0 0 0 0 0 0 0 0 0 0 0 0 0 0 0 0 0 0 0 0 0 0 0 0 0 0 0 0 0 0 0 0 2 2 2 2 2 3 4 4 4 4 3
6 4 0 0 1 1 0 0 0 0 4 12 11 4 0 0 0 4 6 7 1 0 0 0 0 0 0 0 0 0 0 0 0 0 1 1 1 2 2 2 2 3 2 2
8 5 0 4 20 9 0 0 5 12 12 21 24 19 27 13 10 8 17 14 8 1 6 12 6 0 0 0 0 0 0 0 0 0 0 0 0 0 1 2 2 2 3 3
0 0 1 2 5 4 6 11 16 21 30 28 16 13 23 25 14 3 5 5 0 0 0 3 8 11 7 0 0 0 0 0 0 0 0 0 0 0 0 0 0 1 1 1
CIN
-0 -0 -0 -0 -0 -0 -0 -0 -0 -0 -25 -0 -292 -238 -216 -217 -224 -228 -255 -282 -328 -327 -287 -278 -281 -331 -371 -346 -333 -311 -292 -269 -249 -237 -226 -221 -212 -204 -183 -69 -38 -79 -105 -110
-0 -0 -0 -0 -0 -0 -0 -0 -0 -0 -0 -400 -380 -314 -278 -283 -274 -275 -340 -403 -428 -442 -362 -302 -267 -289 -367 -369 -395 -389 -314 -269 -268 -258 -236 -214 -191 -202 -178 -58 -95 -0 -0 -208
-0 -0 -0 -0 -0 -0 -0 -0 -0 -0 -88 -317 -346 -390 -431 -457 -432 -404 -440 -494 -516 -511 -466 -503 -394 -343 -338 -427 -455 -398 -352 -302 -262 -234 -207 -169 -120 -145 -97 -123 -139 -61 -55 -38
-0 -0 -0 -0 -133 -204 -128 -338 -409 -211 -350 -406 -611 -331 -352 -340 -306 -310 -274 -323 -318 -712 -626 -687 -688 -593 -561 -396 -320 -306 -286 -277 -252 -222 -190 -151 -116 -109 -39 -90 -120 -294 -242 -141
-0 -0 -106 -215 -251 -229 -145 -248 -515 -380 -452 -684 -0 -0 -0 -0 -0 -0 -0 -0 -0 -0 -768 -814 -725 -734 -686 -636 -604 -493 -315 -171 -151 -180 -166 -139 -114 -114 -54 -117 -213 -221 -386 -0
-9 -64 -34 -102 -315 -0 -347 -92 -540 -403 -530 -513 -496 -396 -0 -0 -0 -0 -0 -0 -0 -0 -0 -0 -0 -0 -0 -637 -649 -576 -0 -435 -141 -108 -136 -114 -96 -91 -74 -172 -185 -486 -0 -473
-112 -68 -116 -0 -0 -0 -74 -127 -661 -566 -398 -395 -434 -0 -0 -0 -0 -0 -0 -0 -0 -0 -0 -0 -0 -0 -0 -0 -0 -0 -0 -0 -542 -147 -68 -81 -92 -94 -91 -96 -164 -412 -0 -526
-9 -78 -22 -0 -0 -241 -22 -0 -0 -0 -0 -0 -0 -0 -0 -0 -0 -0 -0 -0 -0 -0 -0 -0 -0 -0 -0 -0 -0 -0 -0 -0 -429 -530 -93 -44 -66 -98 -145 -108 -93 -72 -154 -208
-0 -4 -0 -0 -0 -0 -0 -0 -0 -0 -0 -0 -0 -0 -0 -0 -0 -0 -0 -0 -0 -0 -0 -0 -0 -0 -0 -0 -0 -0 -0 -0 -688 -596 -438 -132 -38 -76 -112 -117 -110 -143 -170 -158
-0 -0 -0 -0 -0 -0 -0 -0 -0 -0 -0 -0 -0 -0 -0 -0 -0 -0 -0 -0 -0 -0 -0 -0 -0 -0 -0 -0 -0 -0 -0 -0 -0 -584 -666 -402 -108 -45 -42 -56 -70 -85 -112 -115
-0 -0 -0 -0 -0 -0 -0 -0 -0 -0 -0 -0 -0 -0 -0 -0 -0 -0 -0 -0 -0 -0 -0 -0 -0 -0 -0 -0 -0 -0 -0 -0 -0 -0 -353 -445 -390 -290 -232 -116 -120 -116 -218 -0
-0 -0 -0 -0 -0 -0 -0 -0 -0 -0 -0 -0 -0 -0 -0 -0 -0 -0 -0 -0 -0 -0 -0 -1 -0 -0 -0 -0 -0 -0 -0 -0 -0 -0 -0 -0 -423 -472 -576 -198 -181 -0 -0 -0
-0 -0 -0 -0 -0 -0 -0 -0 -0 -0 -0 -0 -0 -0 -0 -0 -0 -0 -0 -0 -0 -0 -0 -0 -0 -1 -0 -0 -0 -0 -1 -0 -0 -0 -0 -0 -0 -0 -0 -303 -569 -0 -0 -0
-0 -0 -0 -0 -0 -0 -0 -0 -0 -0 -0 -0 -0 -0 -0 -0 -0 -0 -0 -0 -0 -1 -1 -1 -0 -0 -0 -0 -0 -0 -0 -0 -0 -0 -0 -0 -0 -0 -0 -0 -0 -0 -0 -1
-0 -0 -0 -0 -0 -0 -0 -0 -0 -0 -0 -0 -0 -0 -0 -0 -0 -0 -0 -1 -1 -1 -1 -1 -0 -0 -0 -0 -0 -0 -0 -0 -1 -1 -1 -0 -0 -0 -0 -0 -0 -0 -0 -1
-0 -0 -0 -0 -0 -0 -0 -0 -0 -0 -0 -0 -0 -0 -0 -0 -0 -0 -1 -0 -0 -0 -1 -2 -0 -0 -0 -0 -0 -1 -1 -3 -0 -0 -0 -1 -0 -0 -0 -1 -0 -0 -8 -1
-0 -0 -0 -0 -0 -0 -0 -0 -0 -0 -0 -0 -0 -0 -0 -0 -0 -0 -0 -1 -0 -1 -0 -0 -0 -0 -0 -0 -0 -0 -0 -0 -0 -0 -0 -1 -8 -8 -6 -1 -1 -2 -0 -0
-0 -0 -0 -0 -0 -0 -0 -0 -0 -0 -0 -0 -0 -0 -0 -0 -0 -0 -0 -0 -0 -0 -0 -0 -0 -0 -0 -0 -0 -0 -0 -0 -0 -0 -0 -0 -0 -1 -5 -2 -1 -1 -1 -2
-0 -0 -0 -0 -0 -0 -0 -0 -0 -0 -0 -0 -0 -0 -0 -0 -0 -1 -1 -1 -0 -0 -0 -0 -0 -0 -0 -0 -0 -0 -0 -0 -0 -0 -0 -0 -1 -0 -1 -1 -1 -2 -2 -1
-0 -0 -0 -0 -0 -0 -0 -0 -0 -0 -0 -0 -0 -0 -0 -0 -0 -0 -0 -1 -0 -1 -1 -0 -0 -0 -0 -0 -0 -0 -0 -0 -0 -0 -0 -0 -3 -0 -1 -2 -2 -3 -5 -2
-0 -0 -0 -0 -0 -0 -0 -0 -0 -0 -0 -0 -0 -0 -0 -0 -0 -0 -0 -0 -0 -0 -0 -0 -0 -0 -0 -0 -0 -0 -0 -0 -0 -0 -0 -0 -0 -0 -0 -0 -2 -2 -2 -1
-0 -0 -0 -0 -0 -0 -0 -0 -0 -0 -0 -0 -0 -0 -0 -0 -0 -0 -0 -0 -0 -0 -0 -0 -0 -0 -0 -0 -0 -0 -0 -0 -0 -0 -0 -0 -0 -0 -0 -0 -1 -1 -1 -2
-0 -0 -0 -0 -0 -0 -0 -0 -0 -0 -0 -0 -0 -0 -0 -0 -0 -0 -0 -0 -0 -0 -0 -0 -0 -0 -0 -0 -0 -0 -0 -0 -0 -0 -0 -0 -0 -0 -0 -0 -0 -0 -0 -3
-0 -0 -0 -0 -0 -0 -0 -0 -0 -0 -0 -0 -0 -0 -0 -0 -0 -0 -0 -0 -0 -0 -0 -0 -0 -0 -0 -0 -0 -0 -0 -0 -0 -0 -0 -0 -0 -0 -0 -0 -0 -0 -0 -0
-56 -55 -0 -0 -3 -3 -0 -0 -0 -0 -35 -34 -31 -13 -0 -0 -0 -10 -19 -17 -3 -0 -0 -0 -0 -0 -0 -0 -0 -0 -0 -0 -0 -0 -0 -0 -0 -0 -0 -0 -0 -0 -0 -0
-51 -34 -0 -22 -12 -15 -0 -0 -16 -14 -19 -13 -10 -13 -7 -7 -13 -19 -10 -10 -13 -3 -12 -11 -13 -0 -0 -0 -0 -0 -0 -0 -0 -0 -0 -0 -0 -0 -0 -0 -0 -0 -0 -0
-0 -2 -3 -8 -30 -28 -23 -21 -13 -5 -14 -19 -9 -14 -13 -11 -9 -12 -15 -3 -0 -0 -0 -8 -8 -9 -19 -0 -0 -0 -0 -0 -0 -0 -0 -0 -0 -0 -0 -0 -0 -0 -0 -0
Wind_Speed
20 18 15 16 15 12 12 15 15 17 13 18 12 11 11 14 14 14 14 13 14 14 11 14 17 18 16 11 9 8 8 7 5 2 2 2 3 4 6 10 13 9 15 28
21 19 16 17 16 14 15 16 16 15 13 13 9 9 11 13 13 14 13 13 13 12 12 14 18 20 22 20 12 9 9 9 8 8 7 5 6 5 8 13 9 19 0 8
20 15 15 22 17 13 12 13 14 15 13 4 6 9 11 13 13 13 12 12 13 13 16 16 19 22 24 24 21 17 14 14 13 12 12 10 9 7 10 9 14 12 18 30
17 11 21 17 14 11 10 14 15 12 5 3 5 8 10 11 12 14 14 13 13 14 16 19 21 23 24 25 24 23 23 22 20 18 16 14 12 9 11 11 5 8 12 11
18 18 15 15 12 11 11 15 15 2 2 0 6 7 10 11 12 13 14 15 15 16 19 20 22 24 24 25 26 27 28 28 28 24 20 18 16 12 12 9 6 3 6 10
16 18 19 16 8 12 10 18 10 1 6 2 10 9 10 11 12 13 14 16 17 19 21 23 25 25 25 26 28 29 31 32 32 29 25 21 18 15 13 10 6 3 3 3
18 19 19 17 20 16 14 15 6 4 8 7 6 5 5 10 12 14 15 17 19 21 23 26 29 28 27 28 31 31 32 35 35 32 29 24 20 17 14 10 6 2 1 2
20 21 22 22 16 16 10 6 4 3 3 2 3 5 7 11 14 17 19 20 23 23 25 29 31 31 28 30 33 35 36 37 37 36 31 25 20 19 16 12 8 5 1 1
24 23 20 16 12 5 4 4 5 5 4 4 6 9 12 17 19 21 24 25 31 30 28 33 33 33 34 34 37 39 39 39 38 36 33 29 23 19 18 14 11 9 6 1
20 17 11 7 5 5 5 5 6 7 7 7 10 13 16 19 22 24 26 26 29 32 32 35 35 36 37 38 39 40 41 40 38 37 36 33 29 24 22 21 17 11 10 11
11 9 4 7 6 5 5 6 7 8 10 12 14 17 19 22 24 26 28 30 30 31 32 32 34 36 38 39 40 41 40 38 38 37 36 35 30 28 26 24 23 19 19 24
19 10 11 9 6 6 6 8 9 10 13 15 16 19 21 22 25 27 29 30 31 32 33 34 36 38 39 39 38 39 39 37 38 38 36 34 33 32 26 25 27 27 26 29
11 5 1 3 6 8 7 9 10 12 15 17 19 21 23 24 25 27 29 30 31 33 34 35 36 38 38 38 39 39 39 39 38 38 36 35 35 34 35 35 30 33 35 33
4 2 7 11 9 8 9 11 12 13 16 18 21 22 24 25 27 29 31 32 33 35 35 38 37 37 39 40 40 40 40 39 37 35 35 35 36 35 34 35 36 38 33 33
6 5 2 4 7 9 11 12 13 16 18 21 23 24 26 28 29 31 32 33 34 34 36 37 39 39 40 40 41 41 39 38 38 37 35 35 35 35 35 35 35 37 37 34
2 3 4 5 8 9 11 14 16 19 21 22 24 26 27 29 30 32 33 34 35 36 37 38 39 40 40 40 40 38 38 39 39 37 36 35 34 35 36 36 35 35 35 35
1 4 4 6 7 9 12 15 17 19 21 23 25 26 28 30 31 32 33 33 34 36 36 38 40 40 41 38 38 38 38 37 39 37 37 35 35 36 36 36 35 34 33 32
4 4 5 6 8 10 13 16 18 20 22 24 25 26 28 30 31 32 33 33 34 35 37 38 39 40 39 39 39 37 37 37 38 38 37 36 34 35 34 34 34 33 33 33
5 5 7 8 10 12 15 17 19 21 23 24 26 27 28 29 30 31 32 32 35 36 39 38 40 40 40 40 40 37 36 38 39 38 37 36 34 34 33 34 35 34 33 34
5 7 8 10 12 14 15 17 19 21 23 24 25 26 28 29 30 31 32 32 34 36 37 38 39 40 39 39 39 37 37 37 37 38 38 37 35 35 36 36 35 34 34 34
4 5 8 10 12 14 16 17 19 21 22 24 25 26 27 28 29 30 31 32 35 37 35 36 37 39 38 38 37 37 37 37 37 37 37 37 37 37 36 35 34 35 36 37
6 7 8 10 12 14 15 17 19 20 21 23 24 25 27 29 30 30 30 32 33 36 35 35 37 39 39 37 37 37 37 37 37 37 36 37 36 36 36 36 35 34 35 36
6 7 8 9 11 12 14 15 17 19 21 23 25 26 27 27 27 29 31 33 33 36 34 35 38 39 37 35 36 36 37 38 38 37 37 37 36 36 35 35 36 34 34 33
6 7 8 9 11 13 14 14 16 18 20 22 22 23 25 27 28 27 29 31 32 33 33 35 37 38 36 36 36 36 37 37 38 37 37 37 36 36 35 35 35 35 35 34
8 7 8 9 10 13 13 15 16 18 20 21 22 22 21 22 24 28 29 31 32 31 31 31 34 35 35 36 36 37 37 36 37 37 37 37 37 36 36 35 34 34 34 34
9 10 9 9 11 12 13 14 17 19 20 23 24 24 23 23 24 26 27 28 29 30 29 29 30 31 32 34 35 36 36 37 37 37 36 36 36 36 36 35 34 34 34 33
11 11 11 10 10 11 12 13 15 17 18 20 22 23 22 22 23 24 25 26 27 27 28 29 29 29 28 30 32 33 34 35 35 36 36 36 35 35 35 35 34 34 33 33
Wind_Direction
273 287 291 282 279 271 269 286 291 307 299 322 350 1 16 29 10 348 347 351 352 349 312 328 331 334 3 45 52 55 55 50 40 36 329 272 283 258 237 316 311 323 336 306
272 278 284 286 293 285 281 292 297 310 307 318 351 13 19 13 4 348 343 343 344 330 333 319 336 335 339 357 26 39 29 26 25 12 2 350 340 307 315 309 345 327 153 205
274 283 282 282 284 287 291 296 299 299 308 326 346 341 1 16 7 356 347 340 329 335 348 320 333 350 349 355 7 16 19 14 17 11 2 356 353 340 330 325 329 358 10 332
277 277 276 298 296 289 292 300 303 308 316 353 345 11 7 350 1 10 0 350 336 331 346 348 346 350 353 359 360 0 0 360 4 6 1 359 359 352 344 345 1 0 3 3
266 270 290 290 293 290 291 295 305 323 104 183 61 33 347 337 351 8 9 359 335 323 327 336 343 348 351 352 352 353 346 344 347 353 356 356 355 354 356 7 16 11 3 26
264 268 274 287 294 299 310 290 304 170 135 140 289 294 308 343 346 352 354 356 343 336 331 329 336 349 352 349 344 339 338 339 339 340 346 352 356 358 357 0 12 10 55 91
268 275 284 283 268 281 285 302 314 261 267 293 296 319 10 343 340 345 339 338 337 336 332 328 327 333 344 344 340 338 340 335 333 334 336 342 348 355 360 359 3 11 59 128
268 271 278 277 272 277 305 355 11 336 312 334 343 337 338 338 331 330 330 328 326 329 329 326 326 328 342 337 333 334 333 328 326 327 333 339 341 345 350 355 356 345 279 316
269 271 289 290 291 326 355 12 15 21 351 337 322 314 318 317 319 317 313 318 315 310 320 319 321 326 329 334 324 324 323 320 321 323 327 332 337 339 340 343 343 342 342 331
269 278 286 296 332 352 7 13 12 1 346 325 322 316 318 318 319 320 326 328 327 322 316 308 318 322 324 323 324 319 315 313 316 318 319 323 328 333 333 334 333 329 328 331
271 263 272 298 323 349 13 10 6 352 339 328 322 318 320 321 323 325 325 324 328 322 319 324 325 327 326 325 320 314 314 315 315 317 317 319 324 326 327 328 328 325 320 322
263 242 270 269 301 324 338 328 340 332 330 332 328 323 321 325 329 329 328 327 324 321 322 324 325 325 326 325 322 317 315 316 315 315 318 322 323 322 325 322 319 315 312 312
249 262 217 289 309 321 326 330 333 333 331 331 331 331 327 326 330 329 329 325 324 324 324 324 326 325 326 325 323 320 316 315 316 317 318 319 319 319 317 313 317 310 308 308
136 192 274 279 291 316 326 338 330 338 340 338 333 334 336 331 332 330 326 324 322 320 323 323 325 325 324 321 322 321 319 320 321 321 320 319 318 317 316 314 311 305 311 311
290 299 314 307 317 325 334 341 344 338 337 331 332 336 332 330 333 336 326 323 322 327 328 329 325 324 324 323 321 321 323 324 323 321 320 318 317 316 313 312 310 306 305 309
323 349 347 327 321 328 336 337 338 337 345 339 335 337 336 335 333 331 328 328 329 328 328 328 327 326 324 322 323 323 324 324 324 324 321 317 317 314 312 310 308 307 305 305
306 300 322 336 342 340 341 343 344 343 342 340 338 338 335 334 333 331 330 331 332 332 332 330 327 328 327 327 325 325 326 326 323 322 322 319 315 313 311 310 308 307 308 306
333 351 357 2 353 346 342 341 341 341 340 339 338 338 337 336 335 335 336 337 337 337 336 335 334 332 331 330 328 327 326 324 324 323 321 320 318 318 313 310 308 309 307 305
37 32 20 11 358 350 345 344 343 344 343 342 342 340 340 340 339 339 339 340 339 338 337 339 338 338 337 335 331 329 328 325 323 322 321 319 319 316 316 310 306 306 306 302
36 16 8 6 356 356 357 355 355 352 350 349 347 345 344 344 342 341 341 342 342 341 340 342 342 340 338 338 337 335 331 329 327 326 322 317 317 315 314 310 309 308 303 299
9 338 9 12 13 7 2 358 355 354 353 352 352 351 351 355 354 350 347 345 344 341 342 344 344 343 345 344 344 343 340 335 332 328 326 322 318 315 313 313 312 310 304 296
53 34 10 6 5 4 1 2 2 1 357 354 355 356 355 353 352 351 353 349 347 346 347 347 346 344 345 346 347 347 345 343 339 335 330 326 324 318 315 314 312 312 309 302
44 24 15 11 11 11 9 5 5 2 0 358 353 352 351 353 354 351 348 351 352 351 353 352 349 347 347 350 349 348 348 347 346 343 338 333 327 322 318 315 311 312 312 312
17 19 24 25 16 8 2 2 1 359 356 355 357 358 357 353 352 355 353 351 350 348 351 351 351 351 353 352 350 348 347 346 346 345 345 343 337 330 324 319 314 312 309 309
24 29 15 11 10 357 359 3 2 1 360 359 360 1 4 4 0 354 353 351 351 351 351 352 351 352 354 354 353 352 351 349 348 347 346 344 343 341 336 329 324 320 314 310
13 10 2 3 2 7 8 8 4 2 2 359 1 5 6 5 3 0 358 356 355 356 357 356 356 355 355 354 354 354 354 354 353 349 347 345 344 345 343 340 335 331 325 319
2 8 11 13 17 17 18 18 14 13 15 13 10 11 13 11 7 5 3 2 360 358 357 357 357 357 357 355 354 354 354 354 354 353 352 350 348 346 344 343 341 339 336 330